2023/09/05 00:00:00,12.6,23.8
2023/09/05 00:10:00,13.2,23.6
2023/09/05 00:20:00,13.8,23.4
2023/09/05 00:30:00,14.2,23.6
2023/09/05 00:40:00,14.7,23.6
2023/09/05 00:50:00,15.0,23.6
2023/09/05 01:00:00,15.4,23.4
2023/09/05 01:10:00,15.7,24.0
2023/09/05 01:20:00,16.0,23.6
2023/09/05 01:30:00,16.1,23.4
2023/09/05 01:40:00,16.4,23.7
2023/09/05 01:50:00,16.5,23.5
2023/09/05 02:00:00,16.5,23.6
2023/09/05 02:10:00,16.2,23.4
2023/09/05 02:20:00,15.9,23.5
2023/09/05 02:30:00,15.5,23.3
2023/09/05 02:40:00,15.3,23.5
2023/09/05 02:50:00,15.4,23.4
2023/09/05 03:00:00,15.2,23.6
2023/09/05 03:10:00,14.8,23.3
2023/09/05 03:20:00,15.5,23.2
2023/09/05 03:30:00,16.0,22.7
2023/09/05 03:40:00,14.7,23.3
2023/09/05 03:50:00,14.4,23.3
2023/09/05 04:00:00,14.4,23.2
2023/09/05 04:10:00,14.2,23.2
2023/09/05 04:20:00,14.1,23.1
2023/09/05 04:30:00,14.0,22.9
2023/09/05 04:40:00,13.7,23.0
2023/09/05 04:50:00,13.9,23.0
2023/09/05 05:00:00,14.2,23.0
2023/09/05 05:10:00,14.5,22.6
2023/09/05 05:20:00,14.9,23.0
2023/09/05 05:30:00,15.5,23.0
2023/09/05 05:40:00,16.2,23.1
2023/09/05 05:50:00,16.5,23.1
2023/09/05 06:00:00,16.1,23.1
2023/09/05 06:10:00,16.3,23.3
2023/09/05 06:20:00,16.3,23.3
2023/09/05 06:30:00,16.5,23.3
2023/09/05 06:40:00,16.8,23.3
2023/09/05 06:50:00,17.0,23.2
2023/09/05 07:00:00,16.9,23.4
2023/09/05 07:10:00,17.1,23.2
2023/09/05 07:20:00,17.8,23.6
2023/09/05 07:30:00,18.1,24.1
2023/09/05 07:40:00,18.3,24.3
2023/09/05 07:50:00,18.1,24.5
2023/09/05 08:00:00,18.1,24.7
2023/09/05 08:10:00,18.2,25.1
2023/09/05 08:20:00,18.6,25.3
2023/09/05 08:30:00,19.2,25.4
2023/09/05 08:40:00,19.5,25.8
2023/09/05 08:50:00,19.4,25.4
2023/09/05 09:00:00,19.5,25.3
2023/09/05 09:10:00,19.1,25.4
2023/09/05 09:20:00,19.4,25.6
2023/09/05 09:30:00,19.9,25.3
2023/09/05 09:40:00,20.2,25.0
2023/09/05 09:50:00,20.6,25.4
2023/09/05 10:00:00,20.6,26.1
2023/09/05 10:10:00,20.4,26.9
2023/09/05 10:20:00, 0.0,29.1
2023/09/05 10:30:00, 0.0,30.2
2023/09/05 10:40:00,18.8,30.3
2023/09/05 10:50:00, 0.0,30.1
2023/09/05 11:00:00,---,30.9
2023/09/05 11:10:00, 2.6,31.7
2023/09/05 11:20:00, 0.0,31.7
2023/09/05 11:30:00, 0.0,31.4
2023/09/05 11:40:00,18.1,31.6
2023/09/05 11:50:00, 0.0,32.1
2023/09/05 12:00:00, 0.0,32.2
2023/09/05 12:10:00, 0.0,33.1
2023/09/05 12:20:00, 0.0,33.5
2023/09/05 12:30:00, 1.5,33.7
2023/09/05 12:40:00, 1.3,33.3
2023/09/05 12:50:00, 1.8,32.3
2023/09/05 13:00:00, 4.2,31.8
2023/09/05 13:10:00,---,32.1
2023/09/05 13:20:00,---,33.4
2023/09/05 13:30:00, 2.2,33.8
2023/09/05 13:40:00,13.3,31.4
2023/09/05 13:50:00,13.4,31.7
2023/09/05 14:00:00,---,31.7
2023/09/05 14:10:00, 9.4,31.6
2023/09/05 14:20:00,---,31.1
2023/09/05 14:30:00, 6.8,31.6
2023/09/05 14:40:00, 8.0,30.5
2023/09/05 14:50:00, 6.5,30.7
2023/09/05 15:00:00,12.8,31.3
2023/09/05 15:10:00,13.0,31.6
2023/09/05 15:20:00,13.1,30.8
2023/09/05 15:30:00,13.9,31.4
2023/09/05 15:40:00,12.4,31.4
2023/09/05 15:50:00,12.9,30.2
2023/09/05 16:00:00,12.2,30.0
2023/09/05 16:10:00,11.3,29.6
2023/09/05 16:20:00,13.8,28.8
2023/09/05 16:30:00,14.5,28.6
2023/09/05 16:40:00,15.0,28.6
2023/09/05 16:50:00,15.1,28.7
2023/09/05 17:00:00,15.9,28.6
2023/09/05 17:10:00,15.9,28.2
2023/09/05 17:20:00,15.7,27.5
2023/09/05 17:30:00,16.3,27.3
2023/09/05 17:40:00,16.5,27.0
2023/09/05 17:50:00,16.4,26.6
2023/09/05 18:00:00,16.1,26.2
2023/09/05 18:10:00,15.7,25.8
2023/09/05 18:20:00,14.9,25.8
2023/09/05 18:30:00,14.3,25.7
2023/09/05 18:40:00, 8.9,25.4
2023/09/05 18:50:00, 0.1,25.1
2023/09/05 19:00:00, 0.0,24.8
2023/09/05 19:10:00, 0.0,24.7
2023/09/05 19:20:00, 0.0,24.7
2023/09/05 19:30:00, 0.0,24.5
2023/09/05 19:40:00, 0.0,24.4
2023/09/05 19:50:00, 0.0,24.3
2023/09/05 20:00:00, 0.0,24.2
2023/09/05 20:10:00, 0.0,24.1
2023/09/05 20:20:00, 0.0,24.0
2023/09/05 20:30:00, 0.0,23.8
2023/09/05 20:40:00, 0.0,23.7
2023/09/05 20:50:00, 0.0,23.5
2023/09/05 21:00:00, 0.0,23.5
2023/09/05 21:10:00, 0.0,23.3
2023/09/05 21:20:00, 0.0,23.2
2023/09/05 21:30:00, 0.0,23.2
2023/09/05 21:40:00, 0.0,23.1
2023/09/05 21:50:00, 0.0,22.9
2023/09/05 22:00:00, 0.0,22.9
2023/09/05 22:10:00, 0.0,22.9
2023/09/05 22:20:00, 0.0,22.8
2023/09/05 22:30:00, 0.0,22.5
2023/09/05 22:40:00, 1.0,22.4
2023/09/05 22:50:00, 4.6,22.4
2023/09/05 23:00:00, 3.3,22.5
2023/09/05 23:10:00, 7.6,22.5
2023/09/05 23:20:00, 8.9,22.5
2023/09/05 23:30:00, 9.8,22.3
2023/09/05 23:40:00, 9.9,22.4
2023/09/05 23:50:00,11.2,22.5
